Regional Weather Roundup
Issued by NWS

Home | Current Version | Previous Version | Graphics & Text | Print | Product List | Glossary On
Versions: 1 2 3 4 5 6 7 8 9 10 11 12 13 14 15 16 17 18 19 20 21 22 23 24 25 26 27 28 29 30 31 32 33 34 35 36 37 38 39 40 41 42 43 44 45 46 47 48 49 50
000
ASUS43 KIND 160509
RWRIN

WEATHER ROUNDUP FOR INDIANA
NATIONAL WEATHER SERVICE INDIANAPOLIS IN
1200 AM EST TUE JAN 16 2018

NOTE: "FAIR" INDICATES FEW OR NO CLOUDS BELOW 12,000 FEET WITH NO
SIGNIFICANT WEATHER AND/OR OBSTRUCTIONS TO VISIBILITY.

* - STATION DOES NOT REPORT WEATHER SUCH AS PRECIPITATION OR FOG.

+ - STATION NOT QUALITY CONTROLLED BY THE NATIONAL WEATHER SERVICE.
    USE DATA WITH CAUTION...ESPECIALLY DEWPOINT AND RELATIVE
    HUMIDITY OBSERVATIONS.

INZ001>003-010>013-019-020-160600-
NORTHWEST INDIANA

CITY           SKY/WX    TMP DP  RH WIND       PRES   REMARKS
GARY /AIRPORT/ FLURRIES  10   4  75 SW8       30.36S WCI  -2
KNOX *+        CLOUDY     5   0  78 SW14      30.37R WCI -12
LA PORTE +     LGT SNOW   5   1  84 SW9       30.34S WCI  -9
MICHIGAN CITY+ FAIR       9   1  72 SW10      30.35R WCI  -6
MONTICELLO +   CLOUDY     4  -2  75 W18G24    30.41R WCI -16
RENSSELAER +   CLOUDY     5  -2  72 SW16      30.40S WCI -14
VALPARAISO     CLOUDY     5   1  83 SW14      30.35S WCI -12

$$

LMZ046-743>745-160600-
SOUTHERN LAKE MICHIGAN

STATION/POSITION TIME  TEMP    WIND        PRES    WAVE
                       AIR SEA DIR/SP/G            HT
                 (UTC) (F)     (DEG/KT/KT) (MB)    (FT)
BURNS HARBOR     0440   10     230/ 10/ 18 1027.8R
MICHIGAN CITY    0440          190/ 14/ 17   N/A

$$

INZ004-005-014>016-021>024-160600-
NORTH CENTRAL INDIANA

CITY           SKY/WX    TMP DP  RH WIND       PRES   REMARKS
GOSHEN         LGT SNOW   8   3  80 SW14G28   30.34R WCI  -8
LOGANSPORT +   CLOUDY     5   1  85 W14G21    30.40S WCI -12
PERU/GRISSOM   CLOUDY     7   1  78 W20       30.38S WCI -13
ROCHESTER +    CLOUDY     9   3  78 W14       30.37S WCI  -8
SOUTH BEND     LGT SNOW   5   2  87 SW15      30.34R FOG     WCI -13
WARSAW +       CLOUDY     7   1  78 W9        30.35R WCI  -7

$$

INZ006>009-017-018-025>027-160600-
NORTHEAST INDIANA

CITY           SKY/WX    TMP DP  RH WIND       PRES   REMARKS
AUBURN +       FLURRIES  12   5  73 SW9G17    30.34R WCI   0
FORT WAYNE     CLOUDY     8   4  83 SW10      30.36R FOG     WCI  -6
HUNTINGTON +   LGT SNOW   7   2  82 W9        30.37R WCI  -7
KENDALLVILLE + FLURRIES  10   6  85 W13       30.31R WCI  -5

$$

INZ028-029-035-036-043>045-051>053-160600-
WEST CENTRAL INDIANA

CITY           SKY/WX    TMP DP  RH WIND       PRES   REMARKS
CRAWFORDSVL +  CLOUDY     4  -1  80 MISG        N/A
GREENCASTLE +  FAIR       5  -2  72 W6        30.45S WCI  -6
LAFAYETTE      CLOUDY     4  -1  80 W13       30.44R WCI -13
TERRE HAUTE    FAIR       4  -5  66 W10       30.50S WCI -11

$$

INZ030>032-037>040-046>048-054>057-064-065-160600-
CENTRAL INDIANA

CITY           SKY/WX    TMP DP  RH WIND       PRES   REMARKS
FISHERS *+       N/A      3   1  92 W5        30.43  WCI  -6
FRANKFORT +    CLOUDY     8   2  76 W16       30.43S WCI -10
GREENWOOD *+   FAIR       9   0  68 W10G17    30.43S WCI  -6
INDIANAPOLIS   MOCLDY     4  -1  80 W9        30.43S WCI -10
-EAGLE CREEK   FAIR       5  -2  72 W6        30.43R WCI  -6
MARION +       CLOUDY     6   3  86 W12       30.39S FOG     WCI  -9
MT COMFORT *+  MOCLDY     5   1  85 W14       30.41S WCI -12
SHELBYVILLE    FAIR       9   0  67 W15       30.41F WCI  -8
ZIONSVILLE +   MOCLDY     3  -3  78 W9        30.41S WCI -12

$$

INZ033-034-041-042-049-050-058-059-160600-
EAST CENTRAL INDIANA

CITY           SKY/WX    TMP DP  RH WIND       PRES   REMARKS
MUNCIE         CLOUDY     9   2  73 W12       30.38S WCI  -6
RICHMOND +     MOCLDY    10   5  79 W13       30.37R WCI  -5

$$

INZ060-061-067>069-081>083-085>088-160600-
SOUTHWEST INDIANA

CITY           SKY/WX    TMP DP  RH WIND       PRES   REMARKS
EVANSVILLE     MOCLDY    13   4  67 NW13G22   30.53R WCI  -2
HUNTINGBURG +  FLURRIES  13   6  74 NW12      30.49S WCI  -1
WASHINGTON +   FAIR       9   0  65 NW13      30.51R WCI  -6

$$

INZ062-063-066-070>080-084-089>092-160600-
SOUTH CENTRAL AND SOUTHEAST INDIANA

CITY           SKY/WX    TMP DP  RH WIND       PRES   REMARKS
BATESVILLE *+    N/A    N/A N/A N/A MISG        N/A
BEDFORD +      FAIR      10   1  67 W12G20    30.44S WCI  -4
BLOOMINGTON    CLOUDY     8   2  76 NW9       30.44S WCI  -5
MADISON *+     CLOUDY    16   9  73 W7        30.44S WCI   6
NORTH VERNON + CLOUDY    12   5  73 W8        30.44R WCI   1
SEYMOUR +      MOCLDY    16   7  67 W9        30.45S WCI   4

$$





USA.gov is the U.S. government's official web portal to all federal, state and local government web resources and services.